FLOCK 3R-13 (43750 NORAD) Tracking and Keplerian Element Data

This shows tracking and keplerian element data for the satellite.

Feedback or suggestion? Click here.




ElementValue
Catalog43750
NameFLOCK 3R-13
Epoch Orbit7816
Epoch Day114.98610939
Epoch Year2020
RAAN190.2004
Inclination97.4245
Eccentricity0.0019553
Argument of Perigee324.3571
Mean Anonmoly35.6362
Mean Motion15.29455626
Decay Rate2.874E-05
L11 43750U 18096AH 20114.98610939 .00002874 00000-0 10282-3 0 9993
L22 43750 97.4245 190.2004 0019553 324.3571 35.6362 15.29455626 78168



Live tracking and technical data element details for FLOCK 3R-13 (NORAD 43750). FLOCK 3R-13 can be tracked NOW for your location showing map with azimuth and elevation plus other details from your city location.







IsCatalogInMostPopularTable: catalog: 43750, numindb: 585
Update: records affected: 1



GetName: 43750 FLOCK 3R-13

Hit Count: updated at: Sat, 07 Mar 2026 05:53:55 GMT